{"data":{"norad_id":65387,"intl_designator":"2025-191J","name":"STARLINK-34703","alt_names":[],"object_type":"PAYLOAD","status":"ACTIVE","operator":null,"country":"US","launch_date":"2025-08-30","launch_site_code":"AFWTR","launch_vehicle":null,"mission":null,"orbit_class":"UNKNOWN","rcs_meters":null,"size_class":null,"mass_kg":null,"dimensions":null,"purposes":["comms"],"wikipedia_slug":null,"has_3d_model":false,"image_url":null,"decayed_at":null,"tle_current":{"epoch":"2026-09-20T13:43:14.113632Z","epoch_age_seconds":108664,"freshness":"FRESH","line1":"1 65387U 25191J   26263.57169113  .00018184  00000+0  56382-3 0  9997","line2":"2 65387  97.2848 129.6567 0002222 359.8766   0.2476 15.33466671 59653","mean_motion":15.33466671,"eccentricity":0.0002222,"inclination_deg":97.2848,"raan_deg":129.6567,"arg_perigee_deg":359.8766,"mean_anomaly_deg":0.2476,"bstar":0.00056382,"rev_number":5965,"period_min":93.90487757135,"perigee_km":463.95804618031,"apogee_km":466.99934899632,"semimajor_km":6843.6156975883,"source":"CELESTRAK","updated_at":"2026-09-21T09:00:35.598627Z"}}}